Time,TemperatureF,DewpointF,PressureIn,WindDirection,WindDirectionDegrees,WindSpeedMPH,WindSpeedGustMPH,Humidity,HourlyPrecipIn,Conditions,Clouds,dailyrainin,SolarRadiationWatts/m^2,SoftwareType,DateUTC
2013-08-14 00:07:00,59.3,57.6,29.63,SSE,161,0.0,1.0,94,0.00,OVC,FEW,0.00,0.0,WeatherDisplay:10.37,2013-08-14 04:07:00,
2013-08-14 00:17:00,59.2,57.5,29.62,SSE,161,0.0,0.0,94,0.00,OVC,FEW,0.00,0.0,WeatherDisplay:10.37,2013-08-14 04:17:00,
2013-08-14 00:22:00,59.2,57.5,29.62,SSE,161,0.0,1.0,94,0.00,OVC,FEW,0.00,0.0,WeatherDisplay:10.37,2013-08-14 04:22:00,
2013-08-14 00:27:00,59.2,57.8,29.62,SSE,161,0.0,1.0,95,0.00,OVC,FEW,0.00,0.0,WeatherDisplay:10.37,2013-08-14 04:27:00,
2013-08-14 00:32:00,59.2,57.8,29.62,SSE,161,0.0,1.0,95,0.00,OVC,FEW,0.00,0.0,WeatherDisplay:10.37,2013-08-14 04:32:00,
2013-08-14 00:37:00,59.3,57.9,29.62,SSE,161,0.0,0.0,95,0.00,OVC,FEW,0.00,0.0,WeatherDisplay:10.37,2013-08-14 04:37:00,
2013-08-14 00:42:00,59.3,57.9,29.61,SSE,161,0.0,1.0,95,0.00,OVC,FEW,0.00,0.0,WeatherDisplay:10.37,2013-08-14 04:42:00,
2013-08-14 00:47:00,59.2,57.8,29.61,SSE,161,0.0,0.0,95,0.00,OVC,FEW,0.00,0.0,WeatherDisplay:10.37,2013-08-14 04:47:00,
2013-08-14 00:52:00,59.2,57.7,29.61,SSE,161,0.0,0.0,95,0.00,OVC,FEW,0.00,0.0,WeatherDisplay:10.37,2013-08-14 04:52:00,
2013-08-14 00:57:00,59.1,57.7,29.61,SSE,161,0.0,0.0,95,0.00,OVC,FEW,0.00,0.0,WeatherDisplay:10.37,2013-08-14 04:57:00,
2013-08-14 01:07:00,58.9,57.5,29.61,SSE,161,0.0,0.0,95,0.00,OVC,FEW,0.00,0.0,WeatherDisplay:10.37,2013-08-14 05:07:00,
2013-08-14 01:17:00,58.7,57.3,29.61,SSE,161,0.0,0.0,95,0.00,OVC,FEW,0.00,0.0,WeatherDisplay:10.37,2013-08-14 05:17:00,
2013-08-14 01:22:00,58.6,57.2,29.61,SSE,161,0.0,0.0,95,0.00,OVC,FEW,0.00,0.0,WeatherDisplay:10.37,2013-08-14 05:22:00,
2013-08-14 01:27:00,58.5,57.1,29.61,SSE,161,0.0,0.0,95,0.00,OVC,FEW,0.00,0.0,WeatherDisplay:10.37,2013-08-14 05:27:00,
2013-08-14 01:32:00,58.4,57.0,29.61,SSE,161,0.0,0.0,95,0.00,OVC,FEW,0.00,0.0,WeatherDisplay:10.37,2013-08-14 05:32:00,
2013-08-14 01:37:00,58.4,57.0,29.61,SSE,161,0.0,0.0,95,0.00,OVC,FEW,0.00,0.0,WeatherDisplay:10.37,2013-08-14 05:37:00,
2013-08-14 01:42:00,58.3,56.8,29.61,SSE,161,0.0,1.0,95,0.00,OVC,FEW,0.00,0.0,WeatherDisplay:10.37,2013-08-14 05:42:00,
2013-08-14 01:47:00,58.0,56.6,29.60,SSE,161,0.0,1.0,95,0.00,OVC,FEW,0.00,0.0,WeatherDisplay:10.37,2013-08-14 05:47:00,
2013-08-14 01:52:00,58.0,56.6,29.60,SSE,162,0.0,1.0,95,0.00,OVC,FEW,0.00,0.0,WeatherDisplay:10.37,2013-08-14 05:52:00,
2013-08-14 01:57:00,57.9,56.5,29.60,SSE,162,0.0,1.0,95,0.00,OVC,FEW,0.00,0.0,WeatherDisplay:10.37,2013-08-14 05:57:00,
2013-08-14 02:07:00,57.4,56.0,29.60,SSE,159,0.0,2.0,95,0.00,OVC,FEW,0.00,0.0,WeatherDisplay:10.37,2013-08-14 06:07:00,
2013-08-14 02:17:00,57.1,56.0,29.60,SSE,158,0.0,2.0,96,0.00,OVC,FEW,0.00,0.0,WeatherDisplay:10.37,2013-08-14 06:17:00,
2013-08-14 02:22:00,57.1,56.0,29.60,SSE,158,0.0,0.0,96,0.00,OVC,FEW,0.00,0.0,WeatherDisplay:10.37,2013-08-14 06:22:00,
2013-08-14 02:27:00,57.2,56.1,29.60,SSE,158,0.0,0.0,96,0.00,OVC,FEW,0.00,0.0,WeatherDisplay:10.37,2013-08-14 06:27:00,
2013-08-14 02:32:00,57.2,56.1,29.60,SSE,158,0.0,0.0,96,0.00,OVC,FEW,0.00,0.0,WeatherDisplay:10.37,2013-08-14 06:32:00,
2013-08-14 02:37:00,57.2,56.1,29.60,SSE,158,0.0,1.0,96,0.00,OVC,FEW,0.00,0.0,WeatherDisplay:10.37,2013-08-14 06:37:00,
2013-08-14 02:42:00,57.1,56.0,29.60,SSE,158,0.0,1.0,96,0.00,OVC,FEW,0.00,0.0,WeatherDisplay:10.37,2013-08-14 06:42:00,
2013-08-14 02:47:00,57.1,56.0,29.60,SSE,158,0.0,2.0,96,0.00,OVC,FEW,0.00,0.0,WeatherDisplay:10.37,2013-08-14 06:47:00,
2013-08-14 02:52:00,57.0,55.9,29.60,SSE,158,0.0,2.0,96,0.00,OVC,FEW,0.00,0.0,WeatherDisplay:10.37,2013-08-14 06:52:00,
2013-08-14 02:57:00,57.1,55.9,29.60,SSE,156,1.0,2.0,96,0.00,OVC,FEW,0.00,0.0,WeatherDisplay:10.37,2013-08-14 06:57:00,
2013-08-14 03:07:00,57.0,55.6,29.60,SSW,195,0.0,4.0,95,0.00,OVC,FEW,0.00,0.0,WeatherDisplay:10.37,2013-08-14 07:07:00,
2013-08-14 03:17:00,57.0,55.3,29.60,SSW,197,0.0,2.0,94,0.00,OVC,FEW,0.00,0.0,WeatherDisplay:10.37,2013-08-14 07:17:00,
2013-08-14 03:22:00,57.0,55.3,29.60,SSW,196,0.0,1.0,94,0.00,OVC,FEW,0.00,0.0,WeatherDisplay:10.37,2013-08-14 07:22:00,
2013-08-14 03:27:00,57.0,55.3,29.60,SSW,196,0.0,1.0,94,0.00,OVC,FEW,0.00,0.0,WeatherDisplay:10.37,2013-08-14 07:27:00,
2013-08-14 03:32:00,57.0,55.3,29.60,SSW,198,0.0,2.0,94,0.00,OVC,FEW,0.00,0.0,WeatherDisplay:10.37,2013-08-14 07:32:00,
2013-08-14 03:37:00,57.0,55.3,29.60,SSW,198,0.0,0.0,94,0.00,OVC,FEW,0.00,0.0,WeatherDisplay:10.37,2013-08-14 07:37:00,
2013-08-14 03:42:00,56.9,55.2,29.60,SSW,198,0.0,1.0,94,0.00,OVC,FEW,0.00,0.0,WeatherDisplay:10.37,2013-08-14 07:42:00,
2013-08-14 03:47:00,56.8,55.1,29.60,SSW,198,0.0,1.0,94,0.00,OVC,FEW,0.00,0.0,WeatherDisplay:10.37,2013-08-14 07:47:00,
2013-08-14 03:52:00,56.7,55.0,29.60,SSW,198,0.0,0.0,94,0.00,OVC,FEW,0.00,0.0,WeatherDisplay:10.37,2013-08-14 07:52:00,
2013-08-14 03:57:00,56.6,54.9,29.60,SSW,198,0.0,0.0,94,0.00,OVC,FEW,0.00,0.0,WeatherDisplay:10.37,2013-08-14 07:57:00,
2013-08-14 04:07:00,56.2,54.4,29.60,SSW,198,0.0,1.0,94,0.00,OVC,FEW,0.00,0.0,WeatherDisplay:10.37,2013-08-14 08:07:00,
2013-08-14 04:17:00,55.7,54.3,29.59,SSW,198,0.0,1.0,95,0.00,OVC,FEW,0.00,0.0,WeatherDisplay:10.37,2013-08-14 08:17:00,
2013-08-14 04:22:00,55.4,54.0,29.59,SSW,198,0.0,1.0,95,0.00,OVC,FEW,0.00,0.0,WeatherDisplay:10.37,2013-08-14 08:22:00,
2013-08-14 04:27:00,55.3,53.9,29.59,SSW,198,0.0,1.0,95,0.00,OVC,FEW,0.00,0.0,WeatherDisplay:10.37,2013-08-14 08:27:00,
2013-08-14 04:32:00,55.2,53.8,29.59,SSW,199,0.0,2.0,95,0.00,OVC,FEW,0.00,0.0,WeatherDisplay:10.37,2013-08-14 08:32:00,
2013-08-14 04:37:00,55.1,54.0,29.60,SSW,200,0.0,2.0,96,0.00,OVC,FEW,0.00,0.0,WeatherDisplay:10.37,2013-08-14 08:37:00,
2013-08-14 04:42:00,55.1,54.0,29.60,WSW,241,1.0,5.0,96,0.00,OVC,FEW,0.00,0.0,WeatherDisplay:10.37,2013-08-14 08:42:00,
2013-08-14 04:47:00,55.2,53.8,29.60,West,259,0.0,1.0,95,0.00,OVC,FEW,0.00,0.0,WeatherDisplay:10.37,2013-08-14 08:47:00,
2013-08-14 04:52:00,55.1,53.7,29.60,WNW,293,0.0,1.0,95,0.00,OVC,FEW,0.00,0.0,WeatherDisplay:10.37,2013-08-14 08:52:00,
2013-08-14 04:57:00,55.1,53.7,29.60,WNW,293,0.0,1.0,95,0.00,OVC,FEW,0.00,0.0,WeatherDisplay:10.37,2013-08-14 08:57:00,
2013-08-14 05:07:00,55.0,53.6,29.60,WNW,294,0.0,1.0,95,0.00,BKN,FEW,0.00,0.0,WeatherDisplay:10.37,2013-08-14 09:07:00,
2013-08-14 05:17:00,54.8,53.4,29.59,WNW,295,0.0,4.0,95,0.00,OVC,FEW,0.00,0.0,WeatherDisplay:10.37,2013-08-14 09:17:00,
2013-08-14 05:22:00,54.8,53.7,29.59,NNW,334,1.0,4.0,96,0.00,OVC,FEW,0.00,0.0,WeatherDisplay:10.37,2013-08-14 09:22:00,
2013-08-14 05:27:00,54.8,53.7,29.60,West,280,0.0,3.0,96,0.00,OVC,FEW,0.00,0.0,WeatherDisplay:10.37,2013-08-14 09:27:00,
2013-08-14 05:32:00,54.9,53.8,29.60,WSW,257,0.0,1.0,96,0.00,OVC,FEW,0.00,0.0,WeatherDisplay:10.37,2013-08-14 09:32:00,
2013-08-14 05:37:00,55.0,53.9,29.60,SW,230,0.0,2.0,96,0.00,OVC,FEW,0.00,0.0,WeatherDisplay:10.37,2013-08-14 09:37:00,
2013-08-14 05:42:00,55.1,53.7,29.61,SW,224,0.0,3.0,95,0.00,OVC,FEW,0.00,0.0,WeatherDisplay:10.37,2013-08-14 09:42:00,
2013-08-14 05:47:00,55.2,53.8,29.60,SW,224,0.0,1.0,95,0.00,-RA,FEW,0.00,0.0,WeatherDisplay:10.37,2013-08-14 09:47:00,
2013-08-14 05:52:00,55.2,53.8,29.61,SSW,211,0.0,2.0,95,0.00,-RA,FEW,0.00,0.0,WeatherDisplay:10.37,2013-08-14 09:52:00,
2013-08-14 05:57:00,55.3,53.9,29.61,South,190,0.0,3.0,95,0.00,-RA,FEW,0.00,0.0,WeatherDisplay:10.37,2013-08-14 09:57:00,
2013-08-14 06:07:00,55.2,53.8,29.61,SW,217,1.0,5.0,95,0.00,OVC,FEW,0.00,0.0,WeatherDisplay:10.37,2013-08-14 10:07:00,
2013-08-14 06:17:00,54.9,53.2,29.61,East,80,0.0,5.0,94,0.00,OVC,FEW,0.00,7.0,WeatherDisplay:10.37,2013-08-14 10:17:00,
2013-08-14 06:22:00,54.8,53.1,29.61,NW,324,1.0,4.0,94,0.00,OVC,FEW,0.00,7.0,WeatherDisplay:10.37,2013-08-14 10:22:00,
2013-08-14 06:27:00,54.7,53.0,29.61,West,280,0.0,1.0,94,0.00,OVC,FEW,0.00,5.0,WeatherDisplay:10.37,2013-08-14 10:27:00,
2013-08-14 06:32:00,54.6,53.2,29.61,WSW,245,0.0,4.0,95,0.00,OVC,FEW,0.00,7.0,WeatherDisplay:10.37,2013-08-14 10:32:00,
2013-08-14 06:37:00,54.4,52.7,29.61,WSW,257,0.0,3.0,94,0.00,OVC,FEW,0.00,9.0,WeatherDisplay:10.37,2013-08-14 10:37:00,
2013-08-14 06:42:00,54.3,52.9,29.61,WSW,243,0.0,4.0,95,0.00,OVC,FEW,0.00,14.0,WeatherDisplay:10.37,2013-08-14 10:42:00,
2013-08-14 06:47:00,54.1,52.7,29.61,SSW,203,0.0,4.0,95,0.00,OVC,FEW,0.00,14.0,WeatherDisplay:10.37,2013-08-14 10:47:00,
2013-08-14 06:52:00,54.1,52.7,29.62,SE,136,1.0,5.0,95,0.00,OVC,FEW,0.00,18.0,WeatherDisplay:10.37,2013-08-14 10:52:00,
2013-08-14 06:57:00,54.0,52.6,29.62,SW,227,0.0,4.0,95,0.00,OVC,FEW,0.00,14.0,WeatherDisplay:10.37,2013-08-14 10:57:00,
2013-08-14 07:07:00,53.9,52.5,29.62,WSW,257,0.0,3.0,95,0.00,OVC,FEW,0.00,11.0,WeatherDisplay:10.37,2013-08-14 11:07:00,
2013-08-14 07:17:00,53.8,52.1,29.62,West,272,0.0,3.0,94,0.00,OVC,FEW,0.00,37.0,WeatherDisplay:10.37,2013-08-14 11:17:00,
2013-08-14 07:22:00,53.7,52.3,29.62,West,271,0.0,1.0,95,0.00,OVC,FEW,0.00,37.0,WeatherDisplay:10.37,2013-08-14 11:22:00,
2013-08-14 07:27:00,53.7,52.3,29.62,West,271,0.0,3.0,95,0.00,OVC,FEW,0.00,37.0,WeatherDisplay:10.37,2013-08-14 11:27:00,
2013-08-14 07:32:00,53.8,52.4,29.62,WNW,289,0.0,4.0,95,0.00,OVC,FEW,0.00,77.0,WeatherDisplay:10.37,2013-08-14 11:32:00,
2013-08-14 07:37:00,53.9,52.5,29.62,NNW,346,0.0,3.0,95,0.00,OVC,FEW,0.00,53.0,WeatherDisplay:10.37,2013-08-14 11:37:00,
2013-08-14 07:42:00,54.0,52.6,29.62,NNW,327,0.0,3.0,95,0.00,OVC,FEW,0.00,69.0,WeatherDisplay:10.37,2013-08-14 11:42:00,
2013-08-14 07:47:00,54.1,52.7,29.62,WNW,297,0.0,1.0,95,0.00,OVC,FEW,0.00,74.0,WeatherDisplay:10.37,2013-08-14 11:47:00,
2013-08-14 07:52:00,54.1,52.7,29.63,West,268,0.0,4.0,95,0.00,OVC,FEW,0.00,107.0,WeatherDisplay:10.37,2013-08-14 11:52:00,
2013-08-14 07:57:00,54.0,52.6,29.63,West,277,1.0,3.0,95,0.00,OVC,FEW,0.00,63.0,WeatherDisplay:10.37,2013-08-14 11:57:00,
2013-08-14 08:07:00,54.1,52.7,29.62,SW,226,0.0,3.0,95,0.00,OVC,FEW,0.00,63.0,WeatherDisplay:10.37,2013-08-14 12:07:00,
2013-08-14 08:17:00,54.1,52.4,29.62,West,263,0.0,2.0,94,0.00,OVC,FEW,0.00,62.0,WeatherDisplay:10.37,2013-08-14 12:17:00,
2013-08-14 08:22:00,54.1,52.4,29.62,WSW,238,0.0,3.0,94,0.00,OVC,FEW,0.00,33.0,WeatherDisplay:10.37,2013-08-14 12:22:00,
2013-08-14 08:27:00,54.0,52.3,29.62,NW,316,2.0,5.0,94,0.00,OVC,FEW,0.00,30.0,WeatherDisplay:10.37,2013-08-14 12:27:00,
2013-08-14 08:32:00,54.0,52.3,29.62,NNW,342,0.0,2.0,94,0.00,OVC,FEW,0.00,35.0,WeatherDisplay:10.37,2013-08-14 12:32:00,
2013-08-14 08:37:00,53.9,52.2,29.62,ENE,58,0.0,2.0,94,0.00,OVC,FEW,0.00,44.0,WeatherDisplay:10.37,2013-08-14 12:37:00,
2013-08-14 08:42:00,53.8,52.4,29.62,ENE,68,0.0,3.0,95,0.00,OVC,FEW,0.00,58.0,WeatherDisplay:10.37,2013-08-14 12:42:00,
2013-08-14 08:47:00,53.9,52.5,29.62,ENE,77,0.0,2.0,95,0.00,OVC,FEW,0.00,90.0,WeatherDisplay:10.37,2013-08-14 12:47:00,
2013-08-14 08:57:00,53.9,52.5,29.62,SSE,148,0.0,2.0,95,0.00,OVC,FEW,0.00,162.0,WeatherDisplay:10.37,2013-08-14 12:57:00,
2013-08-14 09:07:00,54.3,52.3,29.62,South,191,0.0,3.0,93,0.00,OVC,FEW,0.00,84.0,WeatherDisplay:10.37,2013-08-14 13:07:00,
2013-08-14 09:17:00,54.5,52.5,29.62,West,268,0.0,3.0,93,0.00,OVC,FEW,0.00,357.0,WeatherDisplay:10.37,2013-08-14 13:17:00,
2013-08-14 09:22:00,55.0,53.0,29.62,WSW,253,0.0,1.0,93,0.00,OVC,FEW,0.00,304.0,WeatherDisplay:10.37,2013-08-14 13:22:00,
2013-08-14 09:27:00,55.7,53.1,29.62,WSW,249,1.0,3.0,91,0.00,OVC,FEW,0.00,135.0,WeatherDisplay:10.37,2013-08-14 13:27:00,
2013-08-14 09:32:00,56.0,52.5,29.62,WSW,257,1.0,4.0,88,0.00,OVC,FEW,0.00,128.0,WeatherDisplay:10.37,2013-08-14 13:32:00,
2013-08-14 09:37:00,56.1,52.9,29.62,NW,305,0.0,2.0,89,0.00,OVC,FEW,0.00,308.0,WeatherDisplay:10.37,2013-08-14 13:37:00,
2013-08-14 09:47:00,56.8,53.6,29.62,NE,44,0.0,4.0,89,0.00,OVC,FEW,0.00,362.0,WeatherDisplay:10.37,2013-08-14 13:47:00,
2013-08-14 09:52:00,57.3,53.4,29.62,WSW,237,0.0,3.0,87,0.00,OVC,FEW,0.00,155.0,WeatherDisplay:10.37,2013-08-14 13:52:00,
2013-08-14 09:57:00,57.4,53.3,29.62,WSW,247,1.0,3.0,86,0.00,OVC,FEW,0.00,156.0,WeatherDisplay:10.37,2013-08-14 13:57:00,
2013-08-14 10:07:00,56.9,52.8,29.63,SW,220,0.0,2.0,86,0.00,OVC,FEW,0.00,162.0,WeatherDisplay:10.37,2013-08-14 14:07:00,
2013-08-14 10:17:00,56.3,52.5,29.62,SW,226,0.0,6.0,87,0.00,OVC,FEW,0.00,264.0,WeatherDisplay:10.37,2013-08-14 14:17:00,
2013-08-14 10:22:00,56.3,52.5,29.63,South,185,1.0,5.0,87,0.00,OVC,FEW,0.00,255.0,WeatherDisplay:10.37,2013-08-14 14:22:00,
2013-08-14 10:27:00,56.4,52.3,29.63,SSW,196,1.0,7.0,86,0.00,OVC,FEW,0.00,392.0,WeatherDisplay:10.37,2013-08-14 14:27:00,
2013-08-14 10:32:00,57.0,52.8,29.63,South,189,1.0,7.0,86,0.00,OVC,FEW,0.00,450.0,WeatherDisplay:10.37,2013-08-14 14:32:00,
2013-08-14 10:37:00,57.9,53.1,29.63,SW,214,1.0,9.0,84,0.00,OVC,FEW,0.00,388.0,WeatherDisplay:10.37,2013-08-14 14:37:00,
2013-08-14 10:42:00,58.0,52.9,29.63,WNW,295,0.0,4.0,83,0.00,OVC,FEW,0.00,146.0,WeatherDisplay:10.37,2013-08-14 14:42:00,
2013-08-14 10:47:00,58.0,52.2,29.64,NW,319,0.0,9.0,81,0.00,OVC,FEW,0.00,63.0,WeatherDisplay:10.37,2013-08-14 14:47:00,
2013-08-14 10:52:00,57.2,51.7,29.64,SSW,201,0.0,3.0,82,0.00,OVC,FEW,0.00,62.0,WeatherDisplay:10.37,2013-08-14 14:52:00,
2013-08-14 10:57:00,56.5,51.7,29.64,West,259,0.0,6.0,84,0.00,OVC,FEW,0.00,69.0,WeatherDisplay:10.37,2013-08-14 14:57:00,
2013-08-14 11:07:00,55.6,51.5,29.64,ESE,114,0.0,6.0,86,0.00,OVC,FEW,0.00,171.0,WeatherDisplay:10.37,2013-08-14 15:07:00,
2013-08-14 11:17:00,55.5,51.4,29.64,East,90,1.0,3.0,86,0.00,OVC,FEW,0.00,139.0,WeatherDisplay:10.37,2013-08-14 15:17:00,
2013-08-14 11:22:00,55.5,51.7,29.65,SW,216,2.0,5.0,87,0.00,OVC,FEW,0.00,98.0,WeatherDisplay:10.37,2013-08-14 15:22:00,
2013-08-14 11:27:00,55.4,51.6,29.65,NW,326,0.0,2.0,87,0.00,OVC,FEW,0.00,77.0,WeatherDisplay:10.37,2013-08-14 15:27:00,
2013-08-14 11:32:00,55.5,51.7,29.65,North,4,0.0,1.0,87,0.00,OVC,FEW,0.00,113.0,WeatherDisplay:10.37,2013-08-14 15:32:00,
2013-08-14 11:37:00,55.5,51.7,29.65,NNW,329,1.0,4.0,87,0.00,OVC,FEW,0.00,204.0,WeatherDisplay:10.37,2013-08-14 15:37:00,
2013-08-14 11:42:00,55.6,51.8,29.65,ESE,122,1.0,3.0,87,0.00,OVC,FEW,0.00,148.0,WeatherDisplay:10.37,2013-08-14 15:42:00,
2013-08-14 11:47:00,55.8,52.0,29.65,ENE,76,1.0,3.0,87,0.00,OVC,FEW,0.00,299.0,WeatherDisplay:10.37,2013-08-14 15:47:00,
2013-08-14 11:57:00,57.1,53.0,29.64,South,177,1.0,4.0,86,0.00,OVC,FEW,0.00,563.0,WeatherDisplay:10.37,2013-08-14 15:57:00,
2013-08-14 12:07:00,58.7,53.2,29.64,WSW,243,1.0,5.0,82,0.00,BKN,FEW,0.00,330.0,WeatherDisplay:10.37,2013-08-14 16:07:00,
2013-08-14 12:17:00,58.7,52.5,29.64,West,276,0.0,9.0,80,0.00,BKN,FEW,0.00,302.0,WeatherDisplay:10.37,2013-08-14 16:17:00,
2013-08-14 12:22:00,58.7,52.5,29.65,WSW,241,1.0,4.0,80,0.00,BKN,FEW,0.00,262.0,WeatherDisplay:10.37,2013-08-14 16:22:00,
2013-08-14 12:32:00,58.0,52.2,29.65,NNW,343,2.0,4.0,81,0.00,BKN,FEW,0.00,295.0,WeatherDisplay:10.37,2013-08-14 16:32:00,
2013-08-14 12:37:00,58.0,52.2,29.65,WNW,282,1.0,9.0,81,0.00,BKN,FEW,0.00,425.0,WeatherDisplay:10.37,2013-08-14 16:37:00,
2013-08-14 12:42:00,58.4,52.6,29.65,WSW,257,1.0,9.0,81,0.00,BKN,FEW,0.00,1165.0,WeatherDisplay:10.37,2013-08-14 16:42:00,
2013-08-14 12:47:00,59.4,52.9,29.65,WSW,241,1.0,4.0,79,0.00,OVC,FEW,0.00,1165.0,WeatherDisplay:10.37,2013-08-14 16:47:00,
2013-08-14 13:07:00,60.7,52.7,29.65,South,172,1.0,10.0,75,0.00,SCT,FEW,0.00,1213.0,WeatherDisplay:10.37,2013-08-14 17:07:00,
2013-08-14 13:17:00,60.8,52.8,29.65,WNW,299,1.0,10.0,75,0.00,SCT,FEW,0.00,243.0,WeatherDisplay:10.37,2013-08-14 17:17:00,
2013-08-14 13:22:00,60.4,53.2,29.66,West,281,3.0,9.0,77,0.00,SCT,FEW,0.00,141.0,WeatherDisplay:10.37,2013-08-14 17:22:00,
2013-08-14 13:32:00,58.4,53.9,29.66,North,8,0.0,3.0,85,0.00,SCT,FEW,0.00,536.0,WeatherDisplay:10.37,2013-08-14 17:32:00,
2013-08-14 13:42:00,58.3,53.8,29.66,East,89,0.0,8.0,85,0.00,SCT,FEW,0.00,381.0,WeatherDisplay:10.37,2013-08-14 17:42:00,
2013-08-14 14:17:00,59.7,52.8,29.65,South,180,1.0,7.0,78,0.00,FEW,FEW,0.00,285.0,WeatherDisplay:10.37,2013-08-14 18:17:00,
2013-08-14 14:22:00,59.9,53.7,29.65,SSW,193,2.0,6.0,80,0.00,FEW,FEW,0.00,1085.0,WeatherDisplay:10.37,2013-08-14 18:22:00,
2013-08-14 14:42:00,61.0,53.4,29.65,WNW,283,1.0,6.0,76,0.00,FEW,FEW,0.00,311.0,WeatherDisplay:10.37,2013-08-14 18:42:00,
2013-08-14 14:47:00,61.2,53.2,29.65,NNW,340,2.0,8.0,75,0.00,FEW,FEW,0.00,195.0,WeatherDisplay:10.37,2013-08-14 18:47:00,
2013-08-14 14:57:00,60.3,52.3,29.66,WNW,301,2.0,9.0,75,0.00,FEW,FEW,0.00,125.0,WeatherDisplay:10.37,2013-08-14 18:57:00,
2013-08-14 15:07:00,58.0,52.2,29.66,West,280,1.0,12.0,81,0.00,SCT,FEW,0.00,181.0,WeatherDisplay:10.37,2013-08-14 19:07:00,
2013-08-14 15:17:00,57.7,52.2,29.65,SW,224,5.0,10.0,82,0.00,SCT,FEW,0.00,434.0,WeatherDisplay:10.37,2013-08-14 19:17:00,
2013-08-14 15:32:00,57.8,51.7,29.66,NW,316,5.0,9.0,80,0.00,SCT,FEW,0.00,81.0,WeatherDisplay:10.37,2013-08-14 19:32:00,
2013-08-14 15:37:00,57.1,51.4,29.67,NNW,345,1.0,7.0,81,0.00,SCT,FEW,0.00,276.0,WeatherDisplay:10.37,2013-08-14 19:37:00,
2013-08-14 15:47:00,55.4,50.0,29.68,NNW,343,5.0,8.0,82,0.00,SCT,FEW,0.00,204.0,WeatherDisplay:10.37,2013-08-14 19:47:00,
2013-08-14 15:52:00,54.6,50.2,29.68,North,357,2.0,7.0,85,0.00,SCT,FEW,0.00,251.0,WeatherDisplay:10.37,2013-08-14 19:52:00,
2013-08-14 15:57:00,54.2,50.1,29.68,WNW,294,1.0,14.0,86,0.00,SCT,FEW,0.00,318.0,WeatherDisplay:10.37,2013-08-14 19:57:00,
2013-08-14 16:07:00,54.6,49.9,29.69,NNW,341,1.0,10.0,84,0.00,SCT,FEW,0.00,283.0,WeatherDisplay:10.37,2013-08-14 20:07:00,
2013-08-14 16:17:00,54.9,50.5,29.69,North,2,2.0,10.0,85,0.00,SCT,FEW,0.00,267.0,WeatherDisplay:10.37,2013-08-14 20:17:00,
2013-08-14 16:27:00,55.8,51.0,29.69,NNW,331,1.0,12.0,84,0.00,SCT,FEW,0.00,72.0,WeatherDisplay:10.37,2013-08-14 20:27:00,
2013-08-14 16:37:00,55.8,50.1,29.70,South,184,3.0,14.0,81,0.00,SCT,FEW,0.00,677.0,WeatherDisplay:10.37,2013-08-14 20:37:00,
2013-08-14 16:47:00,55.9,49.5,29.70,NNW,344,1.0,6.0,79,0.00,SCT,FEW,0.00,183.0,WeatherDisplay:10.37,2013-08-14 20:47:00,
2013-08-14 16:52:00,55.9,49.8,29.70,North,10,2.0,12.0,80,0.00,SCT,FEW,0.00,163.0,WeatherDisplay:10.37,2013-08-14 20:52:00,
2013-08-14 16:57:00,56.3,49.9,29.70,WNW,289,2.0,12.0,79,0.00,SCT,FEW,0.00,378.0,WeatherDisplay:10.37,2013-08-14 20:57:00,
2013-08-14 17:17:00,56.2,49.4,29.71,WNW,294,1.0,12.0,78,0.00,BKN,FEW,0.00,197.0,WeatherDisplay:10.37,2013-08-14 21:17:00,
2013-08-14 17:22:00,56.3,49.2,29.71,WSW,249,1.0,16.0,77,0.00,BKN,FEW,0.00,573.0,WeatherDisplay:10.37,2013-08-14 21:22:00,
2013-08-14 17:27:00,56.4,48.9,29.71,NNE,33,1.0,10.0,76,0.00,BKN,FEW,0.00,171.0,WeatherDisplay:10.37,2013-08-14 21:27:00,
2013-08-14 17:32:00,56.3,48.5,29.71,NNW,343,3.0,12.0,75,0.00,BKN,FEW,0.00,139.0,WeatherDisplay:10.37,2013-08-14 21:32:00,
2013-08-14 17:37:00,56.1,48.6,29.71,WNW,282,1.0,6.0,76,0.00,BKN,FEW,0.00,86.0,WeatherDisplay:10.37,2013-08-14 21:37:00,
2013-08-14 17:42:00,55.7,48.2,29.72,WSW,240,1.0,4.0,76,0.00,BKN,FEW,0.00,70.0,WeatherDisplay:10.37,2013-08-14 21:42:00,
2013-08-14 17:47:00,55.3,48.2,29.72,NW,305,1.0,4.0,77,0.00,BKN,FEW,0.00,172.0,WeatherDisplay:10.37,2013-08-14 21:47:00,
2013-08-14 17:52:00,55.3,48.9,29.72,NE,46,1.0,5.0,79,0.00,BKN,FEW,0.00,151.0,WeatherDisplay:10.37,2013-08-14 21:52:00,
2013-08-14 17:57:00,55.5,48.1,29.72,West,265,1.0,10.0,76,0.00,BKN,FEW,0.00,121.0,WeatherDisplay:10.37,2013-08-14 21:57:00,
2013-08-14 18:07:00,55.7,48.2,29.73,NW,326,2.0,12.0,76,0.00,BKN,FEW,0.00,74.0,WeatherDisplay:10.37,2013-08-14 22:07:00,
2013-08-14 18:17:00,55.3,47.8,29.73,West,278,2.0,17.0,76,0.00,BKN,FEW,0.00,98.0,WeatherDisplay:10.37,2013-08-14 22:17:00,
2013-08-14 18:22:00,54.9,47.8,29.74,WSW,253,1.0,10.0,77,0.00,BKN,FEW,0.00,58.0,WeatherDisplay:10.37,2013-08-14 22:22:00,
2013-08-14 18:32:00,54.4,48.0,29.74,WNW,286,0.0,3.0,79,0.00,BKN,FEW,0.00,35.0,WeatherDisplay:10.37,2013-08-14 22:32:00,
2013-08-14 18:37:00,54.3,47.9,29.74,WSW,249,0.0,17.0,79,0.00,BKN,FEW,0.00,44.0,WeatherDisplay:10.37,2013-08-14 22:37:00,
2013-08-14 18:42:00,54.1,48.1,29.75,West,266,1.0,4.0,80,0.00,BKN,FEW,0.00,51.0,WeatherDisplay:10.37,2013-08-14 22:42:00,
2013-08-14 18:47:00,54.0,48.3,29.75,North,350,2.0,13.0,81,0.00,BKN,FEW,0.00,70.0,WeatherDisplay:10.37,2013-08-14 22:47:00,
2013-08-14 18:52:00,53.9,47.9,29.75,NNE,27,1.0,7.0,80,0.00,BKN,FEW,0.00,60.0,WeatherDisplay:10.37,2013-08-14 22:52:00,
2013-08-14 18:57:00,53.9,48.2,29.75,East,100,0.0,5.0,81,0.00,BKN,FEW,0.00,39.0,WeatherDisplay:10.37,2013-08-14 22:57:00,
2013-08-14 19:07:00,53.9,47.9,29.76,West,259,1.0,10.0,80,0.00,FEW,FEW,0.00,35.0,WeatherDisplay:10.37,2013-08-14 23:07:00,
2013-08-14 19:17:00,53.5,47.5,29.77,West,281,2.0,14.0,80,0.00,FEW,FEW,0.00,33.0,WeatherDisplay:10.37,2013-08-14 23:17:00,
2013-08-14 19:22:00,53.3,47.6,29.77,SW,214,1.0,4.0,81,0.00,FEW,FEW,0.00,26.0,WeatherDisplay:10.37,2013-08-14 23:22:00,
2013-08-14 19:27:00,53.1,47.1,29.78,NW,323,2.0,12.0,80,0.00,FEW,FEW,0.00,19.0,WeatherDisplay:10.37,2013-08-14 23:27:00,
2013-08-14 19:32:00,52.9,47.2,29.78,NNW,339,1.0,7.0,81,0.00,FEW,FEW,0.00,14.0,WeatherDisplay:10.37,2013-08-14 23:32:00,
2013-08-14 19:37:00,52.7,47.4,29.78,NNW,331,0.0,3.0,82,0.00,FEW,FEW,0.00,11.0,WeatherDisplay:10.37,2013-08-14 23:37:00,
2013-08-14 19:42:00,52.6,47.6,29.79,West,275,0.0,3.0,83,0.00,FEW,FEW,0.00,7.0,WeatherDisplay:10.37,2013-08-14 23:42:00,
2013-08-14 19:47:00,52.6,47.6,29.79,WSW,242,1.0,2.0,83,0.00,FEW,FEW,0.00,5.0,WeatherDisplay:10.37,2013-08-14 23:47:00,
2013-08-14 19:52:00,52.5,47.5,29.79,West,274,1.0,6.0,83,0.00,FEW,FEW,0.00,0.0,WeatherDisplay:10.37,2013-08-14 23:52:00,
2013-08-14 19:57:00,52.3,47.7,29.79,WSW,238,0.0,2.0,84,0.00,FEW,FEW,0.00,0.0,WeatherDisplay:10.37,2013-08-14 23:57:00,
2013-08-14 20:07:00,52.1,47.4,29.80,West,279,0.0,6.0,84,0.00,CLR,FEW,0.00,0.0,WeatherDisplay:10.37,2013-08-15 00:07:00,
2013-08-14 20:17:00,51.9,47.6,29.81,SSW,202,0.0,3.0,85,0.00,CLR,FEW,0.00,0.0,WeatherDisplay:10.37,2013-08-15 00:17:00,
2013-08-14 20:22:00,51.9,47.5,29.81,SSW,204,1.0,5.0,85,0.00,CLR,FEW,0.00,0.0,WeatherDisplay:10.37,2013-08-15 00:22:00,
2013-08-14 20:27:00,51.9,47.5,29.81,SSW,193,0.0,4.0,85,0.00,CLR,FEW,0.00,0.0,WeatherDisplay:10.37,2013-08-15 00:27:00,
2013-08-14 20:32:00,51.9,47.5,29.81,SSW,199,0.0,2.0,85,0.00,CLR,FEW,0.00,0.0,WeatherDisplay:10.37,2013-08-15 00:32:00,
2013-08-14 20:37:00,51.8,47.4,29.81,SW,216,0.0,1.0,85,0.00,CLR,FEW,0.00,0.0,WeatherDisplay:10.37,2013-08-15 00:37:00,
2013-08-14 20:42:00,51.8,47.7,29.81,SE,124,0.0,1.0,86,0.00,CLR,FEW,0.00,0.0,WeatherDisplay:10.37,2013-08-15 00:42:00,
2013-08-14 20:47:00,51.7,47.3,29.82,SE,127,0.0,1.0,85,0.00,CLR,FEW,0.00,0.0,WeatherDisplay:10.37,2013-08-15 00:47:00,
2013-08-14 20:52:00,51.6,47.3,29.82,SE,132,0.0,3.0,85,0.00,CLR,FEW,0.00,0.0,WeatherDisplay:10.37,2013-08-15 00:52:00,
2013-08-14 20:57:00,51.5,47.5,29.82,SE,131,0.0,2.0,86,0.00,CLR,FEW,0.00,0.0,WeatherDisplay:10.37,2013-08-15 00:57:00,
2013-08-14 21:07:00,51.2,47.5,29.83,SE,129,0.0,1.0,87,0.00,OVC,FEW,0.00,0.0,WeatherDisplay:10.37,2013-08-15 01:07:00,
2013-08-14 21:17:00,50.7,47.3,29.83,SE,133,0.0,1.0,88,0.00,OVC,FEW,0.00,0.0,WeatherDisplay:10.37,2013-08-15 01:17:00,
2013-08-14 21:22:00,50.5,47.1,29.83,SE,135,0.0,1.0,88,0.00,OVC,FEW,0.00,0.0,WeatherDisplay:10.37,2013-08-15 01:22:00,
2013-08-14 21:27:00,50.5,47.4,29.83,SE,136,0.0,1.0,89,0.00,OVC,FEW,0.00,0.0,WeatherDisplay:10.37,2013-08-15 01:27:00,
2013-08-14 21:32:00,50.4,47.3,29.83,SSE,147,1.0,4.0,89,0.00,OVC,FEW,0.00,0.0,WeatherDisplay:10.37,2013-08-15 01:32:00,
2013-08-14 21:37:00,50.5,47.4,29.84,SW,227,0.0,1.0,89,0.00,OVC,FEW,0.00,0.0,WeatherDisplay:10.37,2013-08-15 01:37:00,
2013-08-14 21:42:00,50.4,47.3,29.84,WSW,258,1.0,2.0,89,0.00,OVC,FEW,0.00,0.0,WeatherDisplay:10.37,2013-08-15 01:42:00,
2013-08-14 21:47:00,50.5,47.4,29.84,WSW,257,0.0,1.0,89,0.00,OVC,FEW,0.00,0.0,WeatherDisplay:10.37,2013-08-15 01:47:00,
2013-08-14 21:52:00,50.5,47.4,29.84,WSW,255,0.0,2.0,89,0.00,OVC,FEW,0.00,0.0,WeatherDisplay:10.37,2013-08-15 01:52:00,
2013-08-14 21:57:00,50.5,47.4,29.84,WSW,244,0.0,4.0,89,0.00,OVC,FEW,0.00,0.0,WeatherDisplay:10.37,2013-08-15 01:57:00,
2013-08-14 22:07:00,50.7,46.9,29.84,SSW,199,0.0,4.0,87,0.00,BKN,FEW,0.00,0.0,WeatherDisplay:10.37,2013-08-15 02:07:00,
2013-08-14 22:17:00,50.7,47.0,29.84,SSW,192,0.0,3.0,87,0.00,BKN,FEW,0.00,0.0,WeatherDisplay:10.37,2013-08-15 02:17:00,
2013-08-14 22:22:00,50.7,47.0,29.84,SSW,198,0.0,1.0,87,0.00,BKN,FEW,0.00,0.0,WeatherDisplay:10.37,2013-08-15 02:22:00,
2013-08-14 22:27:00,50.7,47.0,29.84,SSW,198,0.0,1.0,87,0.00,BKN,FEW,0.00,0.0,WeatherDisplay:10.37,2013-08-15 02:27:00,
2013-08-14 22:32:00,50.6,46.9,29.84,SSW,193,1.0,5.0,87,0.00,BKN,FEW,0.00,0.0,WeatherDisplay:10.37,2013-08-15 02:32:00,
2013-08-14 22:37:00,50.6,47.2,29.84,SSW,206,0.0,4.0,88,0.00,BKN,FEW,0.00,0.0,WeatherDisplay:10.37,2013-08-15 02:37:00,
2013-08-14 22:42:00,50.6,47.2,29.84,SSW,212,0.0,2.0,88,0.00,BKN,FEW,0.00,0.0,WeatherDisplay:10.37,2013-08-15 02:42:00,
2013-08-14 22:47:00,50.5,47.1,29.84,SSW,204,0.0,1.0,88,0.00,BKN,FEW,0.00,0.0,WeatherDisplay:10.37,2013-08-15 02:47:00,
2013-08-14 22:52:00,50.5,47.1,29.84,SSW,203,1.0,4.0,88,0.00,BKN,FEW,0.00,0.0,WeatherDisplay:10.37,2013-08-15 02:52:00,
2013-08-14 22:57:00,50.4,47.3,29.84,WNW,294,0.0,2.0,89,0.00,BKN,FEW,0.00,0.0,WeatherDisplay:10.37,2013-08-15 02:57:00,
2013-08-14 23:07:00,50.1,47.3,29.85,NW,318,0.0,1.0,90,0.00,CLR,FEW,0.00,0.0,WeatherDisplay:10.37,2013-08-15 03:07:00,
2013-08-14 23:17:00,50.2,47.4,29.85,NW,316,1.0,2.0,90,0.00,CLR,FEW,0.00,0.0,WeatherDisplay:10.37,2013-08-15 03:17:00,
2013-08-14 23:22:00,50.2,47.4,29.85,North,8,0.0,2.0,90,0.00,CLR,FEW,0.00,0.0,WeatherDisplay:10.37,2013-08-15 03:22:00,
2013-08-14 23:27:00,50.2,47.4,29.85,NNE,22,0.0,2.0,90,0.00,CLR,FEW,0.00,0.0,WeatherDisplay:10.37,2013-08-15 03:27:00,
2013-08-14 23:32:00,50.2,47.7,29.85,NNE,23,0.0,1.0,91,0.00,CLR,FEW,0.00,0.0,WeatherDisplay:10.37,2013-08-15 03:32:00,
2013-08-14 23:37:00,50.2,47.7,29.85,NNE,23,0.0,1.0,91,0.00,CLR,FEW,0.00,0.0,WeatherDisplay:10.37,2013-08-15 03:37:00,
2013-08-14 23:42:00,50.1,47.6,29.85,SSW,195,0.0,4.0,91,0.00,CLR,FEW,0.00,0.0,WeatherDisplay:10.37,2013-08-15 03:42:00,
2013-08-14 23:47:00,50.0,47.5,29.85,SSW,195,0.0,3.0,91,0.00,CLR,FEW,0.00,0.0,WeatherDisplay:10.37,2013-08-15 03:47:00,
2013-08-14 23:52:00,49.8,47.3,29.86,SSW,194,0.0,1.0,91,0.00,CLR,FEW,0.00,0.0,WeatherDisplay:10.37,2013-08-15 03:52:00,
2013-08-14 23:57:00,49.5,47.0,29.86,SSW,193,0.0,1.0,91,0.00,CLR,FEW,0.00,0.0,WeatherDisplay:10.37,2013-08-15 03:57:00,